When you browse on this site, cookies collect data to enhance your experience and personalize the content and advertising you see.
Visit our Privacy Policy to learn more. By continuing to use the site, you agree to this use of cookies and data.
  • In Österreich
  • Länderverzeichnis
  • Für 7 Tage
  • Wassertemperatur
  • Satellitenkarten
  • Wetterkarte
  • News
  • Widgets
  • user-avatar
    Anmelden

    Stündliche Wetter La Massana

    Heute, 25 Juni, Dienstag

    Zeit Temperatur Niederschläge Wind Luftdruck Luftfeuchtigkeit
    00:00 +14°C° 0 mm 2 m/S 613 mmHg 50%
    01:00 +14°C° 0 mm 2 m/S 613 mmHg 49%
    02:00 +14°C° 0 mm 2 m/S 613 mmHg 48%
    03:00 +13°C° 0 mm 2 m/S 613 mmHg 47%
    04:00 +14°C° 0 mm 2 m/S 613 mmHg 48%
    05:00 +15°C° 0 mm 2 m/S 614 mmHg 49%
    06:00 +16°C° 0 mm 1 m/S 614 mmHg 50%
    07:00 +18°C° 0 mm 2 m/S 616 mmHg 46%
    08:00 +21°C° 0 mm 2 m/S 617 mmHg 42%
    09:00 +24°C° 0 mm 2 m/S 618 mmHg 37%
    10:00 +25°C° 0 mm 2 m/S 618 mmHg 34%
    11:00 +26°C° 0 mm 2 m/S 619 mmHg 31%
    12:00 +28°C° 0 mm 2 m/S 619 mmHg 28%
    13:00 +28°C° 0 mm 2 m/S 619 mmHg 29%
    14:00 +28°C° 0 mm 2 m/S 619 mmHg 30%
    15:00 +28°C° 0 mm 2 m/S 619 mmHg 32%
    16:00 +26°C° 0 mm 1 m/S 618 mmHg 39%
    17:00 +25°C° 0 mm 1 m/S 618 mmHg 46%
    18:00 +24°C° 0 mm 1 m/S 617 mmHg 54%
    19:00 +22°C° 0 mm 1 m/S 617 mmHg 55%
    20:00 +20°C° 0 mm 1 m/S 616 mmHg 57%
    21:00 +17°C° 0 mm 2 m/S 616 mmHg 58%
    22:00 +17°C° 0 mm 2 m/S 616 mmHg 56%
    23:00 +16°C° 0 mm 2 m/S 616 mmHg 53%

    Morgen, 26 Juni, Mittwoch

    Zeit Temperatur Niederschläge Wind Luftdruck Luftfeuchtigkeit
    00:00 +16°C° 0 mm 2 m/S 616 mmHg 50%
    01:00 +16°C° 0 mm 2 m/S 616 mmHg 47%
    02:00 +16°C° 0 mm 2 m/S 615 mmHg 44%
    03:00 +16°C° 0 mm 2 m/S 615 mmHg 41%
    04:00 +16°C° 0 mm 2 m/S 616 mmHg 41%
    05:00 +17°C° 0 mm 2 m/S 616 mmHg 42%
    06:00 +18°C° 0 mm 2 m/S 616 mmHg 42%
    07:00 +21°C° 0 mm 2 m/S 618 mmHg 36%
    08:00 +24°C° 0 mm 3 m/S 619 mmHg 29%
    09:00 +27°C° 0 mm 3 m/S 620 mmHg 23%
    10:00 +28°C° 0 mm 4 m/S 620 mmHg 22%
    11:00 +29°C° 0 mm 4 m/S 621 mmHg 21%
    12:00 +30°C° 0 mm 4 m/S 621 mmHg 19%
    13:00 +30°C° 0 mm 4 m/S 621 mmHg 20%
    14:00 +29°C° 0 mm 4 m/S 620 mmHg 21%
    15:00 +29°C° 0 mm 4 m/S 620 mmHg 21%
    16:00 +28°C° 0 mm 3 m/S 620 mmHg 28%
    17:00 +26°C° 0 mm 3 m/S 619 mmHg 35%
    18:00 +25°C° 0 mm 2 m/S 618 mmHg 42%
    19:00 +23°C° 0 mm 2 m/S 618 mmHg 42%
    20:00 +20°C° 0 mm 2 m/S 617 mmHg 42%
    21:00 +18°C° 0 mm 2 m/S 617 mmHg 42%
    22:00 +18°C° 0 mm 2 m/S 617 mmHg 38%
    23:00 +18°C° 0 mm 2 m/S 617 mmHg 34%

    übermorgen, 27 Juni, Donnerstag

    Zeit Temperatur Niederschläge Wind Luftdruck Luftfeuchtigkeit
    00:00 +18°C° 0 mm 2 m/S 617 mmHg 31%
    01:00 +18°C° 0 mm 2 m/S 617 mmHg 29%
    02:00 +18°C° 0 mm 2 m/S 616 mmHg 28%
    03:00 +18°C° 0 mm 2 m/S 616 mmHg 27%
    04:00 +18°C° 0 mm 2 m/S 617 mmHg 30%
    05:00 +19°C° 0 mm 2 m/S 617 mmHg 33%
    06:00 +20°C° 0 mm 2 m/S 618 mmHg 36%
    07:00 +23°C° 0 mm 1 m/S 619 mmHg 31%
    08:00 +26°C° 0 mm 1 m/S 620 mmHg 26%
    09:00 +29°C° 0 mm 1 m/S 621 mmHg 21%
    10:00 +30°C° 0 mm 1 m/S 621 mmHg 19%
    11:00 +31°C° 0 mm 1 m/S 622 mmHg 18%
    12:00 +32°C° 0 mm 2 m/S 622 mmHg 16%
    13:00 +32°C° 0 mm 1 m/S 621 mmHg 17%
    14:00 +31°C° 0 mm 1 m/S 621 mmHg 18%
    15:00 +31°C° 0 mm 1 m/S 621 mmHg 19%
    16:00 +30°C° 0 mm 1 m/S 620 mmHg 27%
    17:00 +28°C° 0 mm 1 m/S 619 mmHg 35%
    18:00 +26°C° 0 mm 1 m/S 618 mmHg 43%
    19:00 +24°C° 0 mm 1 m/S 618 mmHg 41%
    20:00 +22°C° 0 mm 1 m/S 617 mmHg 38%
    21:00 +20°C° 0 mm 1 m/S 616 mmHg 36%
    22:00 +19°C° 0 mm 2 m/S 616 mmHg 34%
    23:00 +19°C° 0 mm 2 m/S 616 mmHg 33%

    28 Juni, Freitag

    Zeit Temperatur Niederschläge Wind Luftdruck Luftfeuchtigkeit
    00:00 +19°C° 0 mm 2 m/S 616 mmHg 31%
    01:00 +19°C° 0 mm 2 m/S 616 mmHg 29%
    02:00 +18°C° 0 mm 2 m/S 615 mmHg 27%
    03:00 +18°C° 0 mm 2 m/S 615 mmHg 25%
    04:00 +19°C° 0 mm 2 m/S 615 mmHg 28%
    05:00 +19°C° 0 mm 2 m/S 616 mmHg 31%
    06:00 +20°C° 0 mm 2 m/S 616 mmHg 34%
    07:00 +24°C° 0 mm 2 m/S 617 mmHg 30%
    08:00 +26°C° 0 mm 2 m/S 618 mmHg 26%
    09:00 +29°C° 0 mm 2 m/S 619 mmHg 22%
    10:00 +29°C° 0 mm 2 m/S 619 mmHg 20%
    11:00 +30°C° 0 mm 2 m/S 619 mmHg 18%
    12:00 +31°C° 0 mm 3 m/S 619 mmHg 17%
    13:00 +31°C° 0 mm 3 m/S 619 mmHg 18%
    14:00 +30°C° 0 mm 3 m/S 618 mmHg 18%
    15:00 +30°C° 0 mm 3 m/S 618 mmHg 19%
    16:00 +29°C° 0 mm 2 m/S 617 mmHg 28%
    17:00 +27°C° 0 mm 2 m/S 617 mmHg 36%
    18:00 +26°C° 0 mm 1 m/S 616 mmHg 45%
    19:00 +24°C° 0 mm 2 m/S 616 mmHg 42%
    20:00 +21°C° 0 mm 2 m/S 615 mmHg 40%
    21:00 +19°C° 0 mm 2 m/S 614 mmHg 38%
    22:00 +19°C° 0 mm 2 m/S 614 mmHg 36%
    23:00 +19°C° 0 mm 2 m/S 614 mmHg 34%

    29 Juni, Samstag

    Zeit Temperatur Niederschläge Wind Luftdruck Luftfeuchtigkeit
    00:00 +18°C° 0 mm 2 m/S 614 mmHg 32%
    01:00 +18°C° 0 mm 2 m/S 614 mmHg 33%
    02:00 +18°C° 0 mm 2 m/S 614 mmHg 34%
    03:00 +18°C° 0 mm 2 m/S 613 mmHg 35%
    04:00 +20°C° 0 mm 1 m/S 614 mmHg 37%
    05:00 +20°C° 0 mm 1 m/S 614 mmHg 39%
    06:00 +21°C° 0 mm 1 m/S 615 mmHg 41%
    07:00 +23°C° 0 mm 1 m/S 616 mmHg 36%
    08:00 +26°C° 0 mm 1 m/S 617 mmHg 30%
    09:00 +28°C° 0 mm 1 m/S 618 mmHg 25%
    10:00 +29°C° 0 mm 1 m/S 618 mmHg 24%
    11:00 +30°C° 0 mm 1 m/S 618 mmHg 23%
    12:00 +31°C° 0 mm 2 m/S 619 mmHg 22%
    13:00 +30°C° 0 mm 2 m/S 618 mmHg 26%
    14:00 +29°C° 0 mm 2 m/S 617 mmHg 29%
    15:00 +28°C° 0 mm 2 m/S 617 mmHg 33%
    16:00 +27°C° 0 mm 2 m/S 617 mmHg 40%
    17:00 +26°C° 0 mm 2 m/S 616 mmHg 47%
    18:00 +25°C° 0 mm 1 m/S 616 mmHg 55%
    19:00 +23°C° 0.1 mm 1 m/S 616 mmHg 59%
    20:00 +21°C° 0.1 mm 1 m/S 615 mmHg 64%
    21:00 +19°C° 0.1 mm 1 m/S 615 mmHg 69%
    22:00 +18°C° 0 mm 1 m/S 615 mmHg 65%
    23:00 +18°C° 0 mm 1 m/S 615 mmHg 62%

    30 Juni, Sonntag

    Zeit Temperatur Niederschläge Wind Luftdruck Luftfeuchtigkeit
    00:00 +18°C° 0 mm 1 m/S 615 mmHg 58%
    01:00 +18°C° 0 mm 1 m/S 615 mmHg 58%
    02:00 +16°C° 0 mm 1 m/S 615 mmHg 58%
    03:00 +16°C° 0 mm 1 m/S 615 mmHg 57%
    04:00 +18°C° 0 mm 1 m/S 615 mmHg 57%
    05:00 +19°C° 0 mm 1 m/S 616 mmHg 56%
    06:00 +20°C° 0 mm 1 m/S 616 mmHg 56%
    07:00 +23°C° 0 mm 1 m/S 617 mmHg 47%
    08:00 +25°C° 0 mm 1 m/S 618 mmHg 38%
    09:00 +28°C° 0 mm 1 m/S 619 mmHg 29%
    10:00 +29°C° 0 mm 1 m/S 620 mmHg 26%
    11:00 +29°C° 0 mm 1 m/S 620 mmHg 24%
    12:00 +30°C° 0 mm 2 m/S 620 mmHg 22%
    13:00 +30°C° 0 mm 2 m/S 620 mmHg 23%
    14:00 +30°C° 0 mm 2 m/S 619 mmHg 24%
    15:00 +29°C° 0 mm 2 m/S 619 mmHg 25%
    16:00 +28°C° 0 mm 2 m/S 618 mmHg 35%
    17:00 +26°C° 0 mm 1 m/S 618 mmHg 44%
    18:00 +25°C° 0 mm 1 m/S 617 mmHg 54%
    19:00 +23°C° 0.1 mm 1 m/S 616 mmHg 60%
    20:00 +21°C° 0.1 mm 1 m/S 616 mmHg 66%
    21:00 +19°C° 0.1 mm 1 m/S 615 mmHg 72%
    22:00 +18°C° 0 mm 1 m/S 615 mmHg 70%
    23:00 +18°C° 0 mm 1 m/S 615 mmHg 69%
    Mehr zeigen